Regional Weather Roundup
Issued by NWS

Home | Current Version | Previous Version | Graphics & Text | Print | Product List | Glossary Off
Versions: 1 2 3 4 5 6 7 8 9 10 11 12 13 14 15 16 17 18 19 20 21 22 23 24 25 26 27 28 29 30 31 32 33 34 35 36 37 38 39 40 41 42 43 44 45 46 47 48 49 50

754
ASUS43 KTOP 231859
RWRKS

WEATHER ROUNDUP FOR KANSAS
NATIONAL WEATHER SERVICE GOODLAND KS
200 PM CDT SUN JUL 23 2017

NOTE:  "FAIR" INDICATES FEW OR NO CLOUDS BELOW 12,000 FEET WITH NO
SIGNIFICANT WEATHER AND/OR OBSTRUCTIONS TO VISIBILITY.

KSZ001>006-013>018-027>032-041>047-232000-
NORTHWEST KANSAS

CITY           SKY/WX    TMP DP  RH WIND       PRES   REMARKS
GOODLAND       SUNNY     89  53  29 E13       30.12S
HAYS           SUNNY     91  65  41 N9G16     30.00F
HILL CITY      SUNNY     92  64  39 E7        30.03F
RUSSELL        SUNNY     94  66  39 N9        29.98F HX  97
$$

KSZ061>065-074>080-084>089-232000-
SOUTHWEST KANSAS

CITY           SKY/WX    TMP DP  RH WIND       PRES   REMARKS
DODGE CITY     PTSUNNY   88  66  48 N10       30.05F
ELKHART          N/A     85  56  37 NE12        N/A
GARDEN CITY    SUNNY     88  63  43 VRB6      30.06F
LIBERAL        SUNNY     88  65  46 NE10      30.06F
$$

KSZ066>073-081>083-090>101-232000-
SOUTHEAST KANSAS

CITY           SKY/WX    TMP DP  RH WIND       PRES   REMARKS
CHANUTE        SUNNY     88  71  57 SW7G17    29.95F
COFFEYVILLE    MOSUNNY   89  68  49 NE6       29.95F
HUTCHINSON     MOSUNNY   89  68  49 VRB5      29.97F
MEDICINE LODGE   N/A     91  67  44 N5        29.97F
NEWTON         MOSUNNY   88  69  53 NW6       29.98F
PARSONS        MOSUNNY   86  68  54 VRB5      29.96F
WICHITA INTL   MOSUNNY   90  69  50 CALM      29.96F
WICHITA JABRA  MOSUNNY   90  68  48 NW6       29.97F
WINFIELD       CLOUDY    94  68  42 N9        29.96F HX  98
$$

KSZ007>012-019>026-033>040-048>060-102>105-232000-
NORTHEAST KANSAS

CITY           SKY/WX    TMP DP  RH WIND       PRES   REMARKS
CONCORDIA      SUNNY     91  65  41 N5        29.97F
EMPORIA        SUNNY     91  68  46 VRB5      29.95F HX  95
LAWRENCE       MOSUNNY   90  75  61 CALM      29.92F HX 100
MANHATTAN      SUNNY     93  67  42 VRB5      29.93F HX  96
OLATHE IND     SUNNY     87  72  60 VRB3      29.94F
OLATHE EXE     SUNNY     86  74  67 SE6       29.94F
SALINA         SUNNY     95  65  37 N7        29.96F HX  97
TOPEKA BILLARD SUNNY     91  74  57 VRB5      29.93F HX 100
TOPEKA FORBES  SUNNY     91  75  59 MISG      29.94F HX 101
$$




USA.gov is the U.S. government's official web portal to all federal, state and local government web resources and services.